Wind_Speed
28 29 30 30 30 31 31 30 28 27 27 26 26 27 27 27 26 26 24 23 22 21 20 20 19 19 18 18 18 18 17 17 16 15 14 14 13 12 12 12 12 11 11 11 11 10 10 11 11
29 30 31 32 33 33 32 30 30 29 29 28 29 28 28 28 28 27 26 24 24 23 22 22 21 21 21 20 20 19 18 18 18 17 16 16 15 14 14 14 14 13 13 13 12 12 12 12 13
30 31 33 34 34 34 32 31 31 31 31 31 31 30 30 29 29 28 27 26 26 26 25 24 24 23 23 22 22 22 21 20 19 19 19 18 17 17 16 16 16 15 15 15 15 14 14 14 14
30 32 33 35 36 34 34 33 32 32 33 33 33 32 31 30 30 30 29 28 28 28 27 27 26 25 25 25 24 24 24 22 22 21 21 20 20 19 18 18 18 18 17 17 16 16 16 16 16
31 33 34 36 36 35 35 35 34 34 34 34 35 34 33 32 32 31 31 31 30 30 30 30 29 28 27 27 27 27 26 25 24 24 23 23 22 21 21 20 20 20 19 19 18 18 18 18 18
32 34 36 36 36 35 36 36 36 36 35 35 36 36 35 34 34 33 34 33 33 33 32 32 32 31 30 29 29 29 28 27 26 26 26 25 24 23 23 22 22 21 21 21 21 20 19 19 19
32 34 36 36 36 36 36 37 38 38 37 37 37 37 37 36 36 35 35 35 35 35 35 34 34 33 32 32 31 31 30 30 29 28 28 28 27 26 25 25 24 24 23 23 23 22 22 21 22
33 34 36 35 36 37 37 38 38 38 38 38 39 39 38 37 37 37 38 37 37 37 37 37 36 36 35 34 33 33 33 32 31 31 31 31 30 29 27 27 26 26 26 25 25 24 24 24 23
34 35 35 34 36 36 36 38 39 39 40 40 40 41 40 38 39 39 39 39 39 39 39 38 38 38 37 37 36 36 35 35 34 33 33 33 32 31 30 29 29 28 28 28 27 27 26 26 26
33 34 34 35 35 36 37 38 39 40 41 41 42 42 41 40 41 41 41 40 40 41 41 41 41 40 39 39 39 38 38 37 36 36 35 35 35 33 32 31 31 31 30 30 30 29 29 28 28
32 33 33 34 34 35 37 37 39 41 41 42 42 42 41 42 42 42 41 42 41 42 43 43 43 42 41 41 41 41 41 40 39 38 37 37 37 36 34 34 34 33 32 32 32 32 31 31 30
32 32 33 34 34 33 35 37 38 40 40 41 42 42 42 42 42 42 42 42 43 43 43 44 43 43 42 42 42 42 42 42 41 40 40 39 39 38 37 35 34 34 34 34 34 34 34 33 32
31 31 31 32 33 34 34 36 38 38 38 39 39 40 40 40 41 43 42 42 43 44 43 43 43 43 42 42 42 42 43 43 42 41 41 41 41 40 39 37 36 36 36 36 36 36 36 35 35
30 30 30 31 32 34 35 34 35 34 35 36 37 37 38 39 39 40 41 42 42 43 43 43 43 44 43 43 43 43 43 43 43 43 41 41 42 41 40 40 39 38 37 38 38 38 37 37 36
29 30 30 30 31 32 33 33 32 32 33 35 35 35 35 36 38 39 40 40 41 42 43 43 43 44 44 44 43 43 44 44 44 44 44 42 42 42 42 42 41 40 39 39 39 39 38 37 36
29 31 31 30 30 30 31 31 30 31 33 33 33 33 34 35 37 38 39 40 41 43 42 43 43 43 44 45 45 44 45 45 45 45 44 43 43 42 43 43 42 41 40 40 39 39 38 36 35
29 31 31 30 29 29 30 30 30 30 31 32 32 33 34 34 35 37 38 39 41 42 42 42 43 44 44 46 46 45 45 45 45 46 45 45 45 43 43 43 42 42 41 40 39 38 38 37 35
28 29 29 29 29 28 28 28 28 28 29 31 32 32 33 33 33 36 38 40 41 41 43 43 44 45 45 46 46 45 46 46 47 46 46 46 45 44 43 43 43 43 42 40 39 38 38 37 36
28 29 29 28 28 27 26 26 25 27 28 28 29 29 31 31 33 34 35 38 41 42 43 44 44 45 45 44 45 46 46 46 46 46 46 46 46 44 43 44 44 43 41 41 39 37 38 38 37
27 28 28 27 27 27 26 24 24 25 26 26 27 27 28 30 31 33 35 37 41 43 43 43 44 45 45 45 45 45 47 46 46 46 46 46 46 45 44 44 45 43 42 42 40 39 38 37 37
26 27 26 26 26 26 26 24 23 23 24 24 25 27 27 28 29 31 33 35 38 40 42 42 44 44 45 45 44 45 46 47 46 48 47 46 45 45 44 44 44 43 42 41 41 40 38 37 38
25 25 26 25 25 25 25 26 23 23 23 24 24 26 26 28 30 32 33 33 35 38 40 42 43 43 43 44 43 44 45 46 46 47 48 47 46 45 44 44 44 43 43 42 42 41 40 39 39
25 24 25 25 26 25 25 26 24 24 24 25 25 26 26 28 30 32 33 33 34 36 38 40 41 42 43 44 45 45 45 45 46 46 48 47 47 46 46 45 44 44 44 43 43 42 42 41 40
24 24 25 26 26 25 24 26 25 25 26 26 27 27 27 28 29 31 32 33 35 36 37 38 40 41 41 43 43 44 44 45 45 45 46 46 47 47 47 47 46 46 45 44 44 44 43 41 40
23 24 25 27 27 26 25 26 25 25 26 27 27 26 26 28 29 30 32 34 34 35 36 37 39 40 40 41 42 42 42 43 46 46 46 46 46 46 46 45 46 46 46 45 45 45 44 43 42
22 23 24 27 27 26 26 25 24 25 26 27 28 27 27 27 29 31 32 33 34 35 36 37 37 38 38 39 41 41 41 41 42 44 46 47 47 46 46 45 46 46 46 46 46 46 45 44 43
21 22 23 26 27 27 27 25 24 25 27 27 27 28 28 28 29 31 32 32 34 36 36 37 38 38 38 38 40 40 41 41 41 43 43 45 46 46 45 46 45 45 45 45 46 45 45 45 44
21 21 22 24 26 27 27 25 24 25 26 27 27 28 29 30 31 31 31 32 33 35 36 37 37 37 37 38 38 40 41 41 42 42 42 42 44 46 45 46 46 45 44 44 45 45 44 45 45
21 21 22 23 25 27 27 25 24 24 26 27 28 28 28 30 31 32 32 31 32 34 36 36 37 36 37 37 37 38 40 41 41 41 43 42 42 43 44 44 44 45 44 44 45 44 44 44 45
22 22 22 23 24 26 26 25 24 25 25 26 27 27 28 29 30 31 31 31 32 33 34 35 35 35 36 36 36 37 38 39 39 39 41 40 40 41 43 45 44 44 45 44 44 43 44 44 43
Wind_Direction
255 255 255 255 256 256 257 258 260 261 262 262 261 259 257 256 254 254 252 249 247 247 247 246 246 245 245 244 242 242 242 244 244 244 242 242 241 241 244 249 253 255 256 261 266 271 273 274 276
255 254 254 255 256 257 259 261 261 261 261 261 260 258 256 255 253 252 251 249 247 246 246 246 246 245 245 245 244 243 244 245 245 245 244 243 243 243 245 248 252 254 256 259 264 270 273 273 274
256 255 255 255 256 259 261 261 263 262 261 259 258 256 255 254 253 252 250 248 247 245 245 245 245 246 246 246 246 245 245 246 246 245 244 244 245 245 246 248 251 253 255 258 262 266 270 272 274
258 257 257 257 258 260 262 261 262 262 261 259 257 254 254 254 252 251 251 249 248 245 244 244 245 245 246 246 246 247 246 246 247 246 245 245 246 247 248 249 251 253 255 257 261 264 268 271 273
260 260 260 260 260 261 262 262 262 261 261 259 257 254 254 253 252 251 250 249 247 246 245 244 245 246 246 247 247 247 247 246 246 246 247 246 246 248 249 250 251 254 256 258 260 264 267 271 273
262 262 263 263 263 262 262 262 262 261 259 258 257 254 252 252 252 250 250 249 248 246 246 245 246 247 248 247 248 249 248 247 247 247 248 248 248 249 250 251 252 255 257 259 261 264 267 270 273
265 265 265 265 264 262 262 262 261 260 259 258 257 256 253 253 253 251 249 249 249 247 246 246 246 247 248 249 248 248 248 247 248 248 248 248 249 250 251 252 253 255 257 259 261 264 267 269 272
267 267 265 265 265 264 262 262 261 260 259 257 256 256 254 254 254 252 251 250 249 248 248 247 247 248 249 249 248 248 249 249 249 248 248 248 249 250 251 252 254 255 258 260 262 265 267 269 271
268 268 266 266 266 264 263 261 261 260 259 257 257 256 255 254 253 252 252 251 250 249 248 248 247 248 249 249 248 248 249 250 249 249 248 248 249 249 250 252 254 256 258 260 262 264 266 268 270
269 268 266 266 266 265 263 262 262 261 259 258 257 256 255 254 253 252 251 252 251 250 249 249 249 248 248 248 248 248 248 249 249 248 248 247 248 248 249 252 255 256 258 260 262 263 265 267 269
270 270 266 265 267 267 266 265 263 262 260 258 257 256 255 254 253 251 251 251 251 251 249 249 249 248 247 247 247 248 248 248 248 248 247 247 247 249 250 252 254 256 258 259 261 263 265 266 267
271 272 270 267 268 270 270 267 265 262 261 260 259 258 255 253 253 251 251 251 250 249 249 247 247 248 247 246 246 247 247 247 247 248 247 248 248 249 250 252 254 256 258 260 261 263 264 265 267
273 274 273 271 271 271 272 269 267 265 262 260 260 259 257 255 253 251 251 250 249 247 247 247 246 246 247 246 247 248 248 247 247 246 247 248 249 250 251 251 254 255 257 259 261 262 264 265 267
275 276 276 274 274 273 271 272 270 265 262 261 260 260 258 254 252 251 250 248 246 245 245 245 244 246 247 247 247 247 247 247 247 246 247 249 249 249 251 251 253 255 257 260 261 262 262 264 265
276 277 277 274 275 276 272 272 272 266 263 262 260 259 257 254 252 249 248 246 245 245 245 243 244 245 246 246 247 248 248 247 247 247 247 249 250 251 251 251 253 255 257 258 260 261 261 262 263
279 276 276 276 275 277 275 274 273 267 263 263 261 257 256 254 251 248 246 244 244 244 244 243 244 244 245 246 247 248 248 246 246 247 247 249 249 250 251 251 252 254 255 255 258 260 261 262 262
281 280 277 276 276 277 274 276 274 268 264 264 262 258 255 252 249 246 246 244 243 244 245 246 244 243 245 247 247 247 248 247 247 246 247 250 250 250 250 251 251 253 253 254 257 260 260 262 262
284 281 278 277 278 278 276 277 274 270 268 266 265 260 255 250 247 247 247 246 244 245 245 246 245 244 245 246 246 247 247 247 247 246 247 249 251 252 252 251 250 251 251 253 256 258 260 261 262
283 281 279 279 278 277 279 279 275 272 271 270 267 261 253 250 248 249 250 249 247 247 247 246 245 245 245 247 248 248 247 247 247 247 247 248 250 251 252 252 250 249 251 252 255 257 259 260 261
284 282 281 280 278 276 280 281 275 273 271 271 268 262 256 252 249 251 251 251 249 248 249 247 246 246 246 248 249 249 248 247 247 246 247 248 249 249 251 252 250 249 250 252 254 256 259 259 260
285 283 281 280 278 277 280 279 273 272 270 271 270 264 260 258 253 252 253 252 252 249 249 247 245 247 247 247 249 249 249 247 247 246 247 248 249 250 251 250 248 247 249 252 255 256 259 260 260
284 283 282 281 280 281 283 281 271 270 268 269 271 266 262 258 256 254 254 255 255 253 249 247 245 248 247 246 247 250 250 248 247 247 248 250 251 250 249 249 249 249 250 253 255 258 259 260 260
284 283 282 281 280 283 288 285 275 272 270 267 269 267 265 260 257 254 254 256 257 254 250 249 247 247 247 247 247 250 250 248 247 247 248 250 251 250 249 249 249 251 252 254 256 257 259 259 259
283 282 282 281 281 284 288 285 280 276 276 274 272 268 266 262 261 259 258 258 257 254 250 251 248 248 249 249 249 252 251 249 248 249 249 250 251 250 249 249 250 251 253 256 257 257 258 258 259
284 284 283 282 280 284 288 284 281 281 280 278 276 272 268 265 265 264 262 262 260 255 254 251 248 248 250 252 251 252 252 251 250 250 248 250 251 250 249 250 251 253 256 257 258 257 257 258 259
285 285 286 286 286 286 286 285 282 283 282 280 278 274 273 272 270 268 266 263 260 257 257 253 251 249 250 252 252 253 252 252 251 251 249 249 249 249 250 251 253 254 256 257 257 256 256 257 257
287 287 288 288 288 288 287 285 285 284 282 281 278 276 274 274 273 270 268 265 260 258 258 255 253 252 253 254 254 253 254 252 251 250 249 248 248 249 250 251 252 253 254 255 255 255 255 255 256
290 290 292 290 291 290 289 287 289 288 287 283 280 278 275 275 276 275 271 266 261 258 257 256 254 255 255 256 256 254 255 255 253 250 250 252 252 250 250 252 253 253 253 253 255 254 253 254 255
292 290 291 292 292 291 292 293 291 292 292 287 281 279 279 279 278 277 275 270 265 261 258 255 254 255 256 257 257 257 258 258 255 253 251 252 252 252 251 251 252 253 253 254 255 254 253 253 254
291 291 291 293 294 293 294 296 292 291 290 286 283 281 279 278 277 275 275 271 267 264 260 257 254 254 255 257 258 258 258 258 256 255 253 253 254 253 253 253 254 253 254 255 254 254 253 252 253
Height
5802 5802 5804 5805 5805 5805 5806 5810 5813 5815 5816 5816 5817 5818 5820 5822 5825 5829 5830 5831 5832 5834 5836 5838 5840 5841 5843 5844 5846 5847 5849 5850 5851 5852 5853 5854 5855 5856 5857 5858 5859 5859 5860 5861 5861 5861 5862 5862 5862
5795 5796 5797 5798 5797 5798 5801 5804 5806 5808 5809 5809 5810 5811 5812 5815 5817 5820 5823 5825 5827 5830 5832 5834 5836 5837 5839 5840 5842 5844 5845 5847 5848 5849 5850 5851 5852 5853 5854 5855 5856 5856 5857 5858 5859 5859 5859 5859 5860
5788 5788 5789 5790 5790 5792 5796 5798 5800 5800 5801 5802 5803 5804 5806 5809 5811 5814 5817 5819 5822 5824 5826 5829 5831 5833 5834 5836 5838 5839 5841 5842 5844 5845 5847 5848 5849 5850 5851 5852 5853 5853 5854 5855 5855 5856 5856 5857 5857
5781 5781 5781 5782 5783 5787 5789 5791 5792 5792 5792 5793 5795 5797 5799 5803 5805 5807 5810 5813 5816 5818 5821 5823 5825 5827 5829 5831 5833 5834 5836 5838 5839 5841 5842 5843 5845 5846 5847 5848 5849 5850 5851 5851 5852 5853 5853 5854 5854
5773 5773 5773 5773 5776 5779 5781 5782 5783 5783 5784 5785 5786 5789 5792 5795 5798 5800 5803 5806 5809 5812 5814 5817 5819 5822 5824 5826 5827 5829 5831 5833 5834 5836 5838 5839 5840 5842 5843 5844 5845 5846 5847 5848 5848 5849 5849 5850 5850
5765 5765 5765 5766 5769 5771 5772 5773 5774 5775 5776 5777 5778 5781 5785 5788 5790 5793 5796 5799 5801 5805 5807 5810 5813 5815 5817 5820 5822 5824 5825 5827 5829 5831 5832 5834 5835 5837 5838 5839 5840 5841 5842 5843 5844 5845 5845 5846 5846
5758 5757 5757 5759 5760 5762 5764 5764 5765 5766 5767 5769 5771 5773 5777 5780 5782 5785 5788 5791 5794 5797 5800 5802 5805 5808 5810 5813 5815 5817 5819 5821 5823 5825 5827 5829 5830 5831 5833 5834 5835 5836 5838 5839 5840 5840 5841 5841 5841
5749 5749 5748 5750 5751 5753 5756 5755 5755 5757 5759 5761 5762 5765 5768 5772 5773 5776 5779 5782 5785 5788 5791 5794 5797 5800 5802 5805 5807 5809 5811 5813 5815 5818 5820 5822 5824 5825 5827 5828 5830 5831 5832 5833 5834 5835 5836 5836 5836
5740 5741 5740 5741 5742 5744 5745 5745 5746 5748 5749 5751 5753 5756 5759 5762 5764 5767 5770 5773 5776 5779 5782 5785 5788 5791 5794 5796 5799 5801 5803 5805 5807 5810 5812 5814 5817 5818 5820 5822 5823 5825 5826 5827 5828 5829 5830 5830 5831
5731 5731 5732 5732 5733 5734 5735 5735 5736 5738 5739 5741 5743 5746 5749 5751 5754 5757 5760 5764 5767 5770 5773 5775 5778 5781 5784 5787 5790 5792 5794 5796 5798 5801 5804 5806 5809 5811 5813 5815 5817 5818 5819 5821 5822 5823 5823 5824 5825
5723 5723 5723 5723 5723 5724 5725 5725 5726 5726 5729 5731 5732 5735 5738 5740 5743 5746 5750 5753 5756 5759 5762 5765 5768 5771 5774 5777 5780 5782 5785 5787 5789 5792 5795 5798 5800 5803 5805 5807 5809 5811 5812 5813 5814 5815 5816 5817 5818
5716 5715 5714 5715 5714 5714 5715 5715 5715 5716 5719 5720 5721 5724 5726 5729 5732 5735 5739 5742 5745 5747 5750 5753 5757 5760 5763 5766 5769 5772 5774 5777 5779 5782 5785 5788 5791 5794 5797 5799 5801 5803 5804 5805 5806 5807 5809 5809 5810
5708 5708 5707 5706 5706 5706 5706 5705 5705 5706 5707 5709 5710 5712 5715 5717 5720 5723 5727 5730 5733 5736 5739 5742 5746 5750 5753 5756 5759 5762 5764 5766 5769 5772 5775 5779 5782 5785 5788 5790 5793 5794 5796 5797 5798 5799 5800 5801 5801
5701 5700 5699 5698 5698 5697 5697 5697 5696 5698 5697 5698 5699 5701 5703 5706 5709 5711 5715 5718 5721 5725 5728 5732 5735 5739 5743 5745 5749 5752 5754 5757 5759 5762 5765 5768 5772 5775 5779 5781 5783 5785 5787 5788 5789 5790 5791 5792 5793
5694 5693 5692 5691 5690 5689 5688 5689 5688 5689 5688 5689 5690 5691 5693 5695 5697 5700 5704 5707 5710 5714 5718 5721 5724 5728 5732 5735 5738 5741 5744 5746 5749 5752 5755 5758 5762 5765 5768 5771 5773 5775 5777 5778 5779 5781 5781 5782 5784
5688 5687 5686 5685 5683 5681 5682 5682 5682 5680 5680 5681 5681 5682 5683 5685 5687 5690 5693 5697 5700 5703 5707 5711 5714 5718 5722 5725 5728 5731 5733 5736 5739 5742 5745 5748 5751 5754 5757 5760 5762 5764 5766 5768 5770 5771 5773 5774 5775
5682 5680 5679 5678 5676 5674 5673 5673 5673 5671 5671 5672 5672 5673 5674 5676 5677 5680 5683 5686 5690 5693 5696 5699 5703 5707 5711 5715 5718 5720 5723 5726 5729 5732 5735 5738 5741 5744 5747 5750 5752 5754 5756 5758 5760 5762 5764 5765 5766
5676 5674 5672 5671 5669 5667 5666 5666 5665 5664 5663 5664 5664 5664 5665 5667 5669 5671 5674 5677 5679 5682 5685 5688 5692 5696 5701 5704 5707 5710 5713 5716 5719 5722 5725 5728 5730 5733 5736 5739 5741 5744 5746 5749 5750 5752 5754 5756 5758
5669 5667 5666 5665 5662 5661 5660 5659 5659 5657 5656 5656 5656 5656 5657 5658 5661 5663 5665 5666 5669 5672 5675 5678 5682 5686 5690 5694 5697 5700 5703 5706 5709 5711 5714 5717 5720 5723 5726 5728 5731 5733 5736 5739 5741 5742 5744 5747 5749
5663 5661 5660 5659 5657 5656 5655 5654 5653 5651 5651 5650 5649 5649 5650 5651 5653 5654 5656 5657 5659 5662 5665 5667 5671 5676 5680 5683 5686 5689 5692 5695 5698 5701 5703 5706 5709 5712 5715 5717 5720 5723 5726 5729 5731 5733 5735 5737 5739
5657 5656 5654 5653 5652 5650 5649 5649 5648 5646 5645 5644 5644 5643 5644 5644 5646 5647 5648 5649 5650 5652 5655 5658 5661 5666 5669 5673 5675 5678 5680 5684 5687 5691 5693 5696 5698 5701 5704 5707 5710 5712 5715 5718 5721 5724 5726 5727 5730
5652 5650 5649 5647 5646 5645 5644 5642 5644 5642 5640 5639 5638 5638 5638 5638 5639 5640 5641 5642 5643 5644 5646 5648 5652 5655 5658 5662 5665 5667 5670 5674 5677 5680 5683 5685 5687 5690 5693 5696 5700 5703 5705 5709 5711 5713 5716 5718 5720
5647 5645 5644 5642 5641 5640 5638 5637 5638 5636 5635 5634 5632 5632 5631 5632 5632 5632 5633 5634 5634 5635 5637 5639 5642 5645 5648 5651 5654 5657 5660 5663 5667 5669 5672 5675 5677 5680 5683 5686 5689 5693 5696 5698 5700 5703 5706 5708 5710
5641 5640 5638 5637 5636 5635 5634 5632 5632 5630 5629 5628 5626 5625 5624 5624 5624 5624 5624 5625 5626 5627 5629 5631 5633 5636 5638 5642 5645 5647 5650 5653 5656 5659 5662 5665 5667 5670 5673 5676 5679 5682 5685 5687 5689 5692 5695 5698 5701
5637 5636 5634 5631 5630 5629 5629 5626 5627 5624 5623 5621 5620 5619 5618 5617 5617 5617 5617 5617 5617 5618 5620 5622 5624 5626 5629 5632 5635 5637 5640 5643 5646 5648 5651 5654 5657 5660 5662 5665 5669 5672 5674 5676 5678 5681 5684 5687 5690
5632 5630 5629 5626 5624 5624 5622 5621 5622 5619 5617 5615 5613 5612 5611 5610 5610 5609 5609 5608 5608 5610 5611 5613 5615 5618 5620 5623 5625 5627 5630 5632 5635 5638 5641 5644 5646 5649 5652 5655 5658 5661 5664 5666 5668 5670 5673 5677 5680
5627 5625 5624 5621 5618 5617 5616 5616 5616 5614 5611 5609 5607 5606 5605 5603 5602 5601 5601 5600 5600 5601 5603 5604 5607 5609 5612 5614 5616 5618 5620 5622 5624 5627 5630 5633 5635 5638 5641 5644 5647 5650 5653 5655 5657 5660 5663 5666 5669
5622 5620 5618 5616 5613 5611 5610 5610 5610 5607 5605 5603 5601 5600 5598 5596 5595 5593 5592 5592 5593 5594 5595 5596 5599 5601 5604 5605 5607 5608 5610 5612 5614 5616 5619 5622 5625 5628 5631 5634 5636 5639 5642 5644 5646 5649 5652 5655 5658
5617 5616 5613 5610 5608 5606 5604 5607 5603 5600 5598 5596 5595 5593 5591 5589 5588 5586 5585 5585 5585 5586 5587 5588 5591 5593 5595 5596 5598 5599 5601 5602 5604 5606 5609 5612 5615 5617 5620 5623 5626 5629 5631 5633 5635 5638 5641 5644 5647
5612 5610 5608 5606 5604 5601 5598 5602 5597 5594 5591 5589 5588 5586 5584 5582 5581 5579 5578 5577 5577 5578 5578 5580 5583 5585 5587 5588 5590 5591 5592 5593 5595 5598 5600 5602 5605 5607 5610 5613 5616 5618 5620 5623 5625 5628 5630 5633 5637